TimeWEST,TemperatureF,Dew PointF,Humidity,Sea Level PressureIn,VisibilityMPH,Wind Direction,Wind SpeedMPH,Gust SpeedMPH,PrecipitationIn,Events,Conditions,WindDirDegrees,DateUTC
12:00 AM,64.4,59.0,83,30.06,-9999.0,SW,5.8,-,N/A,,Clear,220,2013-09-19 23:00:00
1:00 AM,63,58,78,30.03,5,South,4.6,,,,,190,2013-09-20 00:00:00
1:00 AM,64.4,59.0,83,30.04,-9999.0,South,4.6,-,N/A,,Clear,190,2013-09-20 00:00:00
2:00 AM,62.6,57.2,82,30.04,-9999.0,Variable,2.3,-,N/A,,Clear,0,2013-09-20 01:00:00
3:00 AM,60.8,57.2,88,30.04,-9999.0,Variable,15.0,-,N/A,,Clear,0,2013-09-20 02:00:00
4:00 AM,60,53,69,30.01,5,SSW,3.5,,,,,200,2013-09-20 03:00:00
4:00 AM,60.8,51.8,72,30.04,-9999.0,Variable,3.5,-,N/A,,Clear,0,2013-09-20 03:00:00
5:00 AM,60.8,53.6,77,30.01,-9999.0,South,5.8,-,N/A,,Clear,170,2013-09-20 04:00:00
6:00 AM,59.0,51.8,77,30.01,-9999.0,SSE,3.5,-,N/A,,Clear,160,2013-09-20 05:00:00
7:00 AM,60,52,67,30.01,6,East,2.3,,,,,80,2013-09-20 06:00:00
7:00 AM,59.0,51.8,77,30.01,-9999.0,Variable,2.3,-,N/A,,Clear,0,2013-09-20 06:00:00
8:00 AM,62.6,53.6,72,30.04,-9999.0,Variable,2.3,-,N/A,,Clear,0,2013-09-20 07:00:00
9:00 AM,69.8,57.2,64,30.04,-9999.0,NE,4.6,-,N/A,,Clear,50,2013-09-20 08:00:00
10:00 AM,73,57,46,29.98,6,NE,6.9,,,,,40,2013-09-20 09:00:00
10:00 AM,73.4,57.2,57,30.04,-9999.0,NE,6.9,-,N/A,,Clear,40,2013-09-20 09:00:00
11:00 AM,75.2,57.2,53,30.04,-9999.0,North,6.9,-,N/A,,Clear,10,2013-09-20 10:00:00
12:00 PM,80.6,57.2,45,30.04,6.2,NNE,5.8,-,N/A,,Partly Cloudy,20,2013-09-20 11:00:00
1:00 PM,82,57,32,29.96,5,NE,4.6,,,,Scattered Clouds,40,2013-09-20 12:00:00
1:00 PM,86.0,55.4,35,30.04,6.2,North,3.5,-,N/A,,Partly Cloudy,10,2013-09-20 12:00:00
2:00 PM,87.8,53.6,31,30.04,6.2,North,4.6,-,N/A,,Partly Cloudy,10,2013-09-20 13:00:00
3:00 PM,87.8,55.4,33,30.01,6.2,Variable,5.8,-,N/A,,Partly Cloudy,0,2013-09-20 14:00:00
4:00 PM,89.6,51.8,27,30.01,6.2,NNW,9.2,-,N/A,,Partly Cloudy,340,2013-09-20 15:00:00
5:00 PM,91.4,48.2,23,30.01,6.2,NW,4.6,-,N/A,,Partly Cloudy,320,2013-09-20 16:00:00
6:00 PM,87.8,46.4,24,30.01,6.2,NNW,9.2,-,N/A,,Partly Cloudy,330,2013-09-20 17:00:00
7:00 PM,85,56,27,29.93,6,NW,9.2,,,,Scattered Clouds,320,2013-09-20 18:00:00
7:00 PM,84.2,55.4,37,30.01,6.2,NW,9.2,-,N/A,,Partly Cloudy,320,2013-09-20 18:00:00
7:30 PM,84.2,55.4,37,30.01,6.2,NW,9.2,-,N/A,,Partly Cloudy,320,2013-09-20 18:30:00
8:00 PM,80.6,53.6,39,30.04,6.2,WNW,4.6,-,N/A,,Partly Cloudy,300,2013-09-20 19:00:00
9:00 PM,77.0,55.4,47,30.06,6.2,SSW,5.8,-,N/A,,Scattered Clouds,200,2013-09-20 20:00:00
10:00 PM,78.8,55.4,44,30.09,6.2,West,5.8,-,N/A,,Partly Cloudy,280,2013-09-20 21:00:00
11:00 PM,73.4,59.0,61,30.09,6.2,SW,4.6,-,N/A,,Partly Cloudy,230,2013-09-20 22:00:00